Weather History for Rogers City, MI

Change the Weather History Date:

Sunday, May 26, 2013

  Actual Average (KAPN) Record (KAPN)
Temperature  
Mean Temperature 48 °F 56 °F  
Max Temperature 62 °F 68 °F 90 °F (1944)
Min Temperature 33 °F 43 °F 25 °F (1969)
Degree Days  
Heating Degree Days 18 10  
Month to date heating degree days 353  
Since 1 July heating degree days 7912  
Cooling Degree Days 0 1  
Month to date cooling degree days 3  
Year to date cooling degree days 5  
Moisture  
Dew Point 34 °F    
Average Humidity 59    
Maximum Humidity 93    
Minimum Humidity 27    
Precipitation  
Precipitation 0.00 in 0.09 in 1.34 in (1991)
Month to date precipitation 2.20  
Year to date precipitation 9.43  
Sea Level Pressure  
Sea Level Pressure 30.33 in    
Wind  
Wind Speed 3 mph (North)    
Max Wind Speed 7 mph    
Max Gust Speed -    
Visibility 10 miles    
Events      
T = Trace of Precipitation, MM = Missing Value Source: NWS Daily Summary

Daily Weather History Graph

Daily Weather History Graph

Search for Another Location

Airport:

Trip Planner

Search our weather history database for the weather conditions in past years. The results will help you decide how hot, cold, wet, or windy it might be!

Date:

Astronomy

May. 26, 2013 Rise Set
Actual Time 5:54 AM EDT 9:11 PM EDT
Civil Twilight 5:18 AM EDT 9:47 PM EDT
Nautical Twilight 4:31 AM EDT 10:34 PM EDT
Astronomical Twilight 3:32 AM EDT 11:33 PM EDT
Moon 10:56 PM EDT (5/26) 7:23 AM EDT (5/26)
Length of Visible Light 16h 29m
Length of Day
15h 16m
Waning Gibbous, 97% of the Moon is Illuminated
May 26
Waning Gibbous
May 31
Last Quarter
Jun 8
New
Jun 16
First Quarter
Jun 23
Full

Hourly Weather History & Observations

Time (EDT) Temp. Windchill Dew Point Humidity Pressure Visibility Wind Dir Wind Speed Gust Speed Precip Events Conditions
12:15 AM 44.6 °F 42.2 °F 36.0 °F 72% 30.33 in 10.0 mi West 4.6 mph - N/A   Clear
12:35 AM 44.6 °F 43.1 °F 35.6 °F 71% 30.33 in 10.0 mi West 3.5 mph - N/A   Clear
12:55 AM 43.9 °F 41.3 °F 35.1 °F 71% 30.33 in 10.0 mi West 4.6 mph - N/A   Clear
1:15 AM 43.7 °F 41.1 °F 35.1 °F 72% 30.33 in 10.0 mi West 4.6 mph - N/A   Clear
1:35 AM 43.7 °F 41.1 °F 34.9 °F 71% 30.33 in 10.0 mi West 4.6 mph - N/A   Clear
1:55 AM 43.2 °F 41.5 °F 34.3 °F 71% 30.33 in 10.0 mi West 3.5 mph - N/A   Clear
2:14 AM 42.8 °F 41.1 °F 33.8 °F 70% 30.33 in 10.0 mi WNW 3.5 mph - N/A   Clear
2:35 AM 40.8 °F - 32.5 °F 72% 30.33 in 10.0 mi Calm Calm - N/A   Clear
2:55 AM 39.0 °F 36.8 °F 32.4 °F 77% 30.33 in 10.0 mi WNW 3.5 mph - N/A   Clear
3:14 AM 41.5 °F 37.1 °F 33.1 °F 72% 30.34 in 10.0 mi West 6.9 mph - N/A   Clear
3:35 AM 41.5 °F 39.6 °F 32.9 °F 71% 30.34 in 10.0 mi West 3.5 mph - N/A   Clear
3:55 AM 40.1 °F - 33.1 °F 76% 30.34 in 10.0 mi Calm Calm - N/A   Clear
4:15 AM 38.5 °F - 32.7 °F 80% 30.34 in 10.0 mi Calm Calm - N/A   Clear
4:35 AM 36.1 °F - 32.0 °F 85% 30.34 in 10.0 mi Calm Calm - N/A   Clear
4:55 AM 36.0 °F - 32.4 °F 87% 30.34 in 10.0 mi Calm Calm - N/A   Clear
5:15 AM 35.2 °F - 32.0 °F 88% 30.34 in 10.0 mi Calm Calm - N/A   Clear
5:35 AM 34.3 °F - 32.0 °F 91% 30.35 in 10.0 mi Calm Calm - N/A   Clear
5:55 AM 33.8 °F - 31.6 °F 92% 30.35 in 10.0 mi Calm Calm - N/A   Clear
6:15 AM 33.8 °F 30.8 °F 32.0 °F 93% 30.36 in 10.0 mi WSW 3.5 mph - N/A   Clear
6:35 AM 34.9 °F - 32.5 °F 91% 30.36 in 10.0 mi Calm Calm - N/A   Clear
6:54 AM 36.7 °F - 34.2 °F 91% 30.37 in 10.0 mi Calm Calm - N/A   Clear
7:15 AM 40.6 °F - 37.9 °F 90% 30.38 in 10.0 mi Calm Calm - N/A   Clear
7:35 AM 45.1 °F - 38.8 °F 79% 30.38 in 10.0 mi Calm Calm - N/A   Clear
7:54 AM 46.8 °F - 37.9 °F 71% 30.38 in 10.0 mi Calm Calm - N/A   Clear
8:15 AM 48.2 °F - 36.7 °F 64% 30.38 in 3.0 mi NNE 3.5 mph - N/A   Haze
8:35 AM 48.4 °F - 36.7 °F 64% 30.38 in 10.0 mi Calm Calm - N/A   Clear
8:55 AM 48.9 °F - 36.1 °F 61% 30.38 in 10.0 mi ENE 3.5 mph - N/A   Clear
9:15 AM 50.2 °F - 34.5 °F 55% 30.39 in 10.0 mi ENE 5.8 mph - N/A   Clear
9:35 AM 50.9 °F - 34.5 °F 54% 30.39 in 10.0 mi NE 5.8 mph - N/A   Clear
9:55 AM 50.7 °F - 34.7 °F 54% 30.40 in 10.0 mi NNE 3.5 mph - N/A   Clear
10:15 AM 51.8 °F - 36.9 °F 57% 30.38 in 10.0 mi NNE 4.6 mph - N/A   Clear
10:34 AM 50.9 °F - 35.8 °F 56% 30.39 in 10.0 mi NNE 4.6 mph - N/A   Clear
10:55 AM 51.8 °F - 36.1 °F 55% 30.39 in 10.0 mi NNE 5.8 mph - N/A   Clear
11:14 AM 52.2 °F - 36.9 °F 56% 30.39 in 10.0 mi NNE 4.6 mph - N/A   Clear
11:35 AM 51.6 °F - 36.7 °F 57% 30.38 in 10.0 mi NE 5.8 mph - N/A   Clear
11:54 AM 52.0 °F - 36.9 °F 56% 30.38 in 10.0 mi NE 5.8 mph - N/A   Clear
12:15 PM 52.2 °F - 37.4 °F 57% 30.38 in 10.0 mi NNE 6.9 mph - N/A   Clear
12:34 PM 51.8 °F - 38.1 °F 60% 30.38 in 10.0 mi NE 5.8 mph - N/A   Clear
12:55 PM 52.3 °F - 37.4 °F 57% 30.38 in 10.0 mi NNE 5.8 mph - N/A   Clear
1:15 PM 53.1 °F - 35.4 °F 51% 30.37 in 10.0 mi North 4.6 mph - N/A   Clear
1:35 PM 54.0 °F - 34.3 °F 47% 30.37 in 10.0 mi NNE 4.6 mph - N/A   Clear
1:55 PM 54.7 °F - 34.3 °F 46% 30.37 in 10.0 mi North 5.8 mph - N/A   Clear
2:14 PM 54.5 °F - 32.2 °F 43% 30.36 in 10.0 mi NNE 3.5 mph - N/A   Clear
2:35 PM 55.6 °F - 30.0 °F 38% 30.36 in 10.0 mi NNE 3.5 mph - N/A   Clear
2:55 PM 56.5 °F - 29.5 °F 36% 30.35 in 10.0 mi NNE 5.8 mph - N/A   Clear
3:14 PM 57.2 °F - 28.9 °F 34% 30.35 in 10.0 mi NE 3.5 mph - N/A   Clear
3:35 PM 57.6 °F - 28.6 °F 33% 30.34 in 10.0 mi Calm Calm - N/A   Clear
3:55 PM 58.5 °F - 30.0 °F 34% 30.34 in 10.0 mi Calm Calm - N/A   Clear
4:15 PM 59.0 °F - 30.4 °F 34% 30.33 in 10.0 mi Calm Calm - N/A   Clear
4:35 PM 59.9 °F - 30.4 °F 33% 30.32 in 10.0 mi Calm Calm - N/A   Clear
4:54 PM 60.1 °F - 29.5 °F 31% 30.31 in 10.0 mi Calm Calm - N/A   Clear
5:15 PM 60.6 °F - 29.3 °F 31% 30.30 in 10.0 mi Calm Calm - N/A   Clear
5:35 PM 61.0 °F - 29.1 °F 30% 30.30 in 7.0 mi Calm Calm - N/A   Clear
5:54 PM 61.7 °F - 29.3 °F 29% 30.29 in 10.0 mi NNE 3.5 mph - N/A   Clear
6:15 PM 61.3 °F - 28.6 °F 29% 30.29 in 10.0 mi Calm Calm - N/A   Clear
6:34 PM 62.2 °F - 29.1 °F 29% 30.28 in 10.0 mi Calm Calm - N/A   Clear
6:55 PM 61.7 °F - 27.7 °F 28% 30.28 in 10.0 mi Calm Calm - N/A   Clear
7:14 PM 61.7 °F - 27.0 °F 27% 30.27 in 10.0 mi Calm Calm - N/A   Clear
7:35 PM 61.7 °F - 27.0 °F 27% 30.27 in 10.0 mi Calm Calm - N/A   Clear
7:54 PM 61.9 °F - 29.5 °F 29% 30.27 in 10.0 mi Calm Calm - N/A   Clear
8:15 PM 60.8 °F - 30.2 °F 31% 30.26 in 10.0 mi Calm Calm - N/A   Clear
8:35 PM 59.2 °F - 36.5 °F 43% 30.26 in 10.0 mi Calm Calm - N/A   Clear
8:54 PM 55.0 °F - 36.0 °F 49% 30.25 in 10.0 mi Calm Calm - N/A   Clear
9:15 PM 51.1 °F - 37.4 °F 60% 30.25 in 10.0 mi Calm Calm - N/A   Clear
9:35 PM 49.5 °F - 39.6 °F 69% 30.25 in 10.0 mi Calm Calm - N/A   Clear
9:55 PM 48.2 °F - 38.1 °F 68% 30.25 in 10.0 mi South 3.5 mph - N/A   Clear
10:15 PM 46.2 °F - 38.1 °F 73% 30.26 in 10.0 mi Calm Calm - N/A   Clear
10:34 PM 45.5 °F - 37.9 °F 75% 30.26 in 10.0 mi Calm Calm - N/A   Clear
10:55 PM 45.7 °F - 36.7 °F 71% 30.26 in 10.0 mi Calm Calm - N/A   Clear
11:15 PM 44.8 °F - 36.9 °F 74% 30.26 in 10.0 mi Calm Calm - N/A   Clear
11:35 PM 45.5 °F 43.2 °F 34.9 °F 66% 30.26 in 10.0 mi SSW 4.6 mph - N/A   Clear
11:55 PM 48.0 °F - 34.2 °F 59% 30.27 in 10.0 mi SW 5.8 mph - N/A   Clear